Regional Weather Roundup
Issued by NWS

Home | Current Version | Previous Version | Graphics & Text | Print | Product List | Glossary On
Versions: 1 2 3 4 5 6 7 8 9 10 11 12 13 14 15 16 17 18 19 20 21 22 23 24 25 26 27 28 29 30 31 32 33 34 35 36 37 38 39 40 41 42 43 44 45 46 47 48 49 50
216
ASUS43 KMPX 232210
RWRMN
WEATHER ROUNDUP FOR MINNESOTA
NATIONAL WEATHER SERVICE TWIN CITIES/CHANHASSEN MN
500 PM CDT MON MAY 23 2016


NOTE: "FAIR" INDICATES FEW OR NO CLOUDS BELOW 12,000 FEET WITH NO
SIGNIFICANT WEATHER AND/OR OBSTRUCTIONS TO VISIBILITY. N/A MEANS
CURRENT SKY AND/OR WEATHER CONDITIONS ARE NOT AVAILABLE.

MNZ060>063-068>070-232300-
   Twin Cities Metro

CITY           SKY/WX    TMP DP  RH WIND       PRES   REMARKS
TWIN CITIES    CLOUDY    77  59  53 SW15G31   29.77R
ST PAUL        CLOUDY    76  61  59 S21       29.77R
CRYSTAL        CLOUDY    77  60  55 S13       29.75R
BLAINE         CLOUDY    77  61  57 SW18G28   29.76R
EDEN PRAIRIE   CLOUDY    76  60  57 S17       29.75R
SOUTH ST PAUL  CLOUDY    75  60  58 S12G23    29.78R
LAKE ELMO      FAIR      75  61  60 SW17G32   29.79R
$$
MNZ001>005-007-008-013>017-022>024-027-028-232300-
   Northwest Minnesota

CITY           SKY/WX    TMP DP  RH WIND       PRES   REMARKS
BEMIDJI        MOSUNNY   79  50  37 W13       29.70S
HALLOCK        SUNNY     81  37  21 W13G20    29.64S
ROSEAU         MOSUNNY   81  43  26 SW10      29.65F
WARROAD        SUNNY     79  46  31 NW6       29.66S
THIEF RVR FALL CLOUDY    73  52  46 W7        29.70R
CROOKSTON      SUNNY     81  46  30 W8        29.67S
FOSSTON        CLOUDY    75  46  35 SW5       29.71S
DETROIT LAKES  PTSUNNY   79  45  29 SW5       29.71S
MOORHEAD       MOSUNNY   81  43  26 NW5       29.67S
PARK RAPIDS    PTSUNNY   79  52  38 SW10      29.71S
MAHNOMEN       FAIR      76  52  42 NW7       29.70S
$$
MNZ006-009>011-018-025>026-232300-
   North Central Minnesota

CITY           SKY/WX    TMP DP  RH WIND       PRES   REMARKS
BAUDETTE       SUNNY     79  43  27 W15G22    29.66R
FLAG ISLAND    MOSUNNY   70  54  56 SE6       29.64S
INTL FALLS     MOSUNNY   77  53  43 W8        29.66S
WASKISH        SUNNY     75  55  50 SW12      29.69S
BIG FORK       PTSUNNY   79  55  44 SW14G20   29.70R
LONGVILLE      MOSUNNY   77  55  47 SW7       29.72S
GRAND RAPIDS     N/A    N/A N/A N/A MISG        N/A
CRANE LAKE     MOSUNNY   73  55  53 S7        29.69F
ORR            MOSUNNY   79  54  41 S5        29.66S
COOK           CLOUDY    77  57  50 SW14      29.70F
WALKER         MOCLDY    75  53  46 SW3       29.70S
$$
MNZ012-019>021-037-232300-
   Northeast Minnesota

CITY           SKY/WX    TMP DP  RH WIND       PRES   REMARKS
DULUTH         CLOUDY    74  57  55 W17G24    29.75S
ELY            PTSUNNY   73  55  53 SW14G24   29.71F
HIBBING        CLOUDY    73  56  54 SW9       29.72S
EVELETH        MOSUNNY   73  54  49 S20       29.74S
DULUTH HARBOR  CLOUDY    75  61  60 W14       29.72S
TWO HARBORS      N/A     79  61  53 W9        29.72R
SILVER BAY     CLOUDY    77  55  47 SW8       29.72R
GRAND MARAIS     N/A     51  41  68 CALM      29.71F
G MARAIS ARPRT CLOUDY    70  50  49 S14G25    29.76S
$$
MNZ029>031-032-039>041-046>048-054>057-064-232300-
   West Central Minnesota

CITY           SKY/WX    TMP DP  RH WIND       PRES   REMARKS
FERGUS FALLS   PTSUNNY   79  48  34 SW3       29.66S
WHEATON        CLOUDY    81  54  39 SW5       29.71S
MORRIS         PTSUNNY   79  55  44 W3        29.70S
ALEXANDRIA     LGT RAIN  77  55  46 SW5       29.73F
ELBOW LAKE     FAIR      78  52  40 S9        29.71F
WADENA         CLOUDY    75  54  46 SW9       29.71F
GLENWOOD       MOSUNNY   75  57  53 W3        29.73S
APPLETON       PTSUNNY   79  54  41 SW7       29.70S
BENSON         CLOUDY    79  55  44 W6        29.70F
ORTONVILLE     PTSUNNY   79  55  44 SW5       29.71S
MADISON        PTSUNNY   77  57  50 SW7       29.70F
WILLMAR        FAIR      73  63  68 W12       29.74S
$$
MNZ033>034-036-042>043-049>051-058-059-232300-
   Central Minnesota

CITY           SKY/WX    TMP DP  RH WIND       PRES   REMARKS
ST CLOUD       CLOUDY    76  61  59 W12       29.73F
SAUK CENTRE    CLOUDY    68  63  83 S6G14     29.74S
PAYNESVILLE    PTSUNNY   70  63  79 CALM      29.74F
AITKIN         CLOUDY    73  57  56 S9        29.73S
PINE RIVER     MOSUNNY   77  57  50 S9        29.75F
BRAINERD       CLOUDY    73  60  63 S14G20    29.74S
STAPLES        CLOUDY    77  52  41 NW3       29.72F
LONG PRAIRIE   PTSUNNY   73  61  64 S9        29.74S
LITTLE FALLS   CLOUDY    70  59  68 S5        29.75R
LITCHFIELD     CLOUDY    73  64  73 W5        29.74R
BUFFALO        LGT RAIN  68  62  79 CALM      29.75F
MAPLE LAKE     CLOUDY    73  62  67 S7        29.75R
HUTCHINSON     MOSUNNY   78  63  60 SW3       29.73F
$$
MNZ037-044-045-052-053-232300-
   East Central Minnesota

CITY           SKY/WX    TMP DP  RH WIND       PRES   REMARKS
PRINCETON      CLOUDY    79  61  53 W3        29.73S
MORA           CLOUDY    73  57  56 W5        29.75S
CAMBRIDGE      RAIN      70  61  73 SE6G22    29.73R
RUSH CITY      PTSUNNY   73  62  67 S7G17     29.74R
MOOSE LAKE     CLOUDY    73  55  53 W7        29.73S
HINCKLEY       MOCLDY    75  61  60 W7        29.74S
CLOQUET        PTSUNNY   73  55  53 SW7       29.75F
MCGREGOR       CLOUDY    70  59  68 S8        29.75F
$$
MNZ071>073-080-081-089-090-097-098-232300-
   Southwest Minnesota

CITY           SKY/WX    TMP DP  RH WIND       PRES   REMARKS
MONTEVIDEO     CLOUDY    79  63  57 SW5       29.72F
GRANITE FALLS  PTSUNNY   75  64  69 SW9       29.73F
CANBY          CLOUDY    78  63  60 SW6       29.73S
MARSHALL       CLOUDY    74  62  66 SW12      29.73F
REDWOOD FALLS  CLOUDY    75  64  68 NW10      29.71R
OLIVIA         CLOUDY    61  55  82 NW5       29.73R
PIPESTONE      CLOUDY    73  63  68 SW7       29.74F
WINDOM         CLOUDY    72  63  73 S10G18    29.75S
WORTHINGTON    TSTM      72  65  78 SW7       29.76R
JACKSON        CLOUDY    73  61  64 S13G18    29.77S
TRACY          CLOUDY    77  61  57 W8        29.73F
SLAYTON        CLOUDY    73  62  70 SW10      29.75F
$$
MNZ065>067-074>077-082>085-091>093-232300-
   South Central Minnesota

CITY           SKY/WX    TMP DP  RH WIND       PRES   REMARKS
MANKATO        PTSUNNY   75  61  60 S18G31    29.77S
NEW ULM        CLOUDY    77  61  57 S14G21    29.72F
ST JAMES       CLOUDY    70  57  64 S16       29.76S
FAIRMONT       CLOUDY    72  63  73 SE17      29.77S
GLENCOE        CLOUDY    79  64  61 S14G20    29.72F
FARIBAULT      CLOUDY    72  61  68 S12G20    29.79F
OWATONNA       CLOUDY    72  61  68 S17       29.80F
WASECA         CLOUDY    72  59  64 S20G25    29.81S
ALBERT LEA     CLOUDY    66  61  82 S17G26    29.81S
$$
MNZ078>079-086>088-094>096-232300-
   Southeast Minnesota

CITY           SKY/WX    TMP DP  RH WIND       PRES   REMARKS
ROCHESTER      TSTM      76  60  57 SW29G35   29.81R
RED WING       CLOUDY    81  57  44 SW10      29.75S
STANTON        CLOUDY    74  61  63 SW13G22   29.78R
DODGE CENTER   CLOUDY    66  63  88 SW18      29.81R
WINONA         CLOUDY    86  52  30 S7G22     29.78F
AUSTIN         LGT RAIN  66  61  82 SW13      29.85R
PRESTON        MOSUNNY   79  55  42 S20G25    29.82R
$$
ABBREVIATIONS USED IN REMARKS
   TC - TEMPERATURES IN CELSIUS
  WCI - WIND CHILL INDEX
   HX - HEAT INDEX
  VSB - VISIBILITY
$$




USA.gov is the U.S. government's official web portal to all federal, state and local government web resources and services.